Malaysia Virtual Airlines Airport Information Service

Singapore Changi Airport

ICAO: WSSS Country: Singapore
Latitude: 1.35019 Longitude: 103.994
Latest Arrival : AK713 (WMKK-WSSS) Latest Departure : AK1792 (WSSS-WBKK)


WX CaptureLIVE
Data provided by noaa.gov | Fetched at 16:01:50

METAR : WSSS 261530Z 16006KT 9999 FEW018 BKN300 28/25 Q1009 NOSIG

TAF : WSSS 261100Z 2612/2718 15010KT 9999 FEW015


Runway Data for WSSS
Data provided by openaviationdata.com

Runway ID Mag Var Hdg Length Elevation Surface ILS Freq ILS Id ILS Slope
02L 0 22° 13152 ft 22 ft Bituminous 110.9 ICW 3
02C 0 22° 13179 ft 22 ft Bituminous 108.3 ICE 3
20R 0 202° 13152 ft 22 ft Bituminous 108.9 ICH 3
20C 0 202° 13179 ft 22 ft Bituminous 109.7 ICC 3

Singapore Changi Airport, Singapore
Use only for reference purposes



Not for navigational purposes.